Wind_Speed
2 2 2 2 2 1 1 1 1 1 1 1 2 2 2 2 2 2 2 2 2 2 3 3 4 4 4 4 4 5 4 4 4 4 5 5 6 6 5 5 5 5 4
2 2 2 2 2 2 2 1 2 2 2 3 3 3 3 3 3 3 3 3 3 3 3 4 4 4 5 5 4 4 5 5 5 5 5 5 6 6 7 6 6 6 5
3 4 4 3 3 3 3 3 3 3 4 4 4 4 4 4 4 4 4 4 4 3 4 4 4 5 5 6 5 5 6 6 6 6 6 6 7 7 7 7 7 7 7
4 4 4 4 4 4 4 4 4 4 5 5 5 5 5 5 5 5 5 5 5 5 5 5 5 5 5 6 6 7 7 7 7 7 7 7 7 7 7 8 8 8 8
5 5 5 5 5 5 5 5 5 5 6 6 6 6 6 7 6 6 5 6 6 6 6 5 6 6 6 7 7 7 8 8 8 8 8 8 8 8 8 9 9 9 9
6 6 6 6 6 6 6 6 6 6 6 6 7 7 7 7 7 7 6 7 7 7 7 7 7 8 7 8 8 9 9 9 9 8 8 9 9 9 9 10 10 9 9
6 6 7 7 7 7 7 7 7 7 7 7 7 8 8 8 8 8 8 8 8 8 8 8 8 8 8 9 9 9 10 10 10 10 9 10 10 10 10 10 10 10 10
7 7 7 8 8 7 7 7 8 8 8 8 8 8 9 9 9 9 10 10 9 9 9 10 10 10 10 10 10 10 11 11 10 10 10 10 11 11 12 12 12 12 11
7 7 7 7 8 8 7 8 8 8 8 9 8 8 9 9 9 10 11 10 10 10 10 11 11 11 10 10 10 10 11 11 12 12 11 11 11 12 12 12 13 13 13
6 7 7 7 7 7 8 8 8 8 8 8 8 8 9 9 9 10 10 11 10 10 10 11 11 11 11 11 11 10 11 12 12 13 13 12 13 13 13 13 13 13 13
6 6 6 6 7 7 7 7 8 8 8 8 8 9 9 9 9 9 10 10 11 11 11 11 11 11 11 11 11 11 11 12 12 13 14 14 14 14 13 13 13 14 14
6 6 6 6 7 7 8 8 8 8 8 9 9 10 10 10 10 10 11 11 12 12 12 12 12 13 13 12 13 13 13 13 13 13 14 15 15 15 15 14 14 14 15
6 7 7 7 7 8 8 8 8 9 9 10 10 10 10 10 11 11 12 12 13 13 13 13 14 14 14 14 14 14 14 14 14 14 15 15 16 16 16 15 15 15 15
7 7 7 8 8 8 8 9 9 9 10 10 11 11 11 11 12 12 12 13 13 14 15 15 15 15 15 15 16 16 16 15 15 15 16 16 17 17 17 17 16 16 16
7 8 7 8 8 9 9 9 9 10 10 11 11 12 12 12 12 12 13 13 14 14 15 15 15 15 16 15 16 16 17 17 16 17 17 17 18 19 18 17 17 17 17
7 7 8 8 8 9 9 10 10 10 10 11 11 12 12 12 12 12 13 13 14 14 14 15 15 15 16 16 17 17 17 17 17 17 17 17 18 18 18 18 18 18 17
7 8 8 8 8 9 9 10 10 11 11 11 11 11 11 12 12 12 13 13 13 14 14 15 16 16 16 16 16 17 17 17 17 17 17 17 17 17 17 17 18 18 17
7 8 8 8 9 9 10 10 11 11 11 11 11 11 11 12 12 13 13 13 14 14 14 15 15 16 16 16 17 17 17 17 17 17 17 17 17 18 17 17 17 17 17
8 8 8 8 9 10 10 11 11 11 11 11 12 12 12 12 12 12 13 13 13 14 14 15 15 16 16 17 17 17 17 17 17 16 16 17 17 18 18 17 17 17 17
9 9 9 9 9 10 10 11 11 11 11 11 12 12 12 12 12 12 12 13 13 14 14 14 15 16 16 16 17 17 17 17 17 17 17 18 18 18 18 18 18 18 18
9 10 10 10 10 10 11 11 11 11 11 12 12 12 12 13 13 13 13 13 13 14 14 15 16 16 16 16 16 16 16 17 17 17 17 18 18 18 18 18 18 19 19
10 10 10 11 11 11 11 11 11 11 11 12 12 12 13 13 13 13 13 13 13 14 14 15 15 16 16 16 16 16 16 16 17 17 17 17 18 17 17 18 18 19 19
10 11 11 11 11 11 11 11 11 12 12 12 12 12 12 12 12 12 12 13 13 13 14 15 16 16 16 16 16 16 16 16 16 17 17 18 18 18 18 17 18 18 19
12 12 12 13 12 12 12 12 12 12 12 12 12 12 12 12 12 12 13 13 13 14 14 15 15 16 16 16 16 16 16 17 17 17 17 17 18 18 18 19 18 18 18
14 14 14 14 14 13 13 13 13 13 13 13 13 13 13 13 13 13 13 13 14 14 14 14 15 15 15 15 15 16 17 17 18 18 18 18 18 18 18 19 19 19 19
15 15 15 15 15 14 14 14 14 14 14 14 14 14 14 14 14 14 14 14 15 15 15 15 15 15 15 15 16 16 16 17 17 17 17 17 18 18 19 19 19 19 19
Wind_Direction
185 173 180 171 161 157 170 191 205 201 214 216 221 222 217 214 209 216 235 239 241 231 224 219 218 215 220 223 223 223 216 216 224 227 227 227 226 224 223 226 229 231 239
207 194 193 189 195 202 217 239 246 248 252 252 242 237 236 233 232 236 239 238 245 247 240 229 234 235 231 231 233 234 231 231 231 233 233 233 231 231 232 231 234 238 245
236 234 229 225 227 229 238 250 253 256 255 256 261 251 244 243 244 249 251 248 248 250 252 249 250 247 240 237 240 243 243 239 241 244 247 246 242 242 243 242 243 245 250
249 247 248 241 240 243 250 256 260 261 258 254 259 260 249 247 247 254 253 254 254 256 257 260 260 260 253 252 254 255 255 250 250 250 250 250 247 245 246 248 248 249 252
251 250 250 247 246 245 249 253 259 261 258 255 255 261 255 250 249 255 258 261 262 261 261 263 262 265 266 262 263 263 259 256 257 255 252 253 251 248 251 251 251 252 255
245 248 252 253 252 253 253 255 261 262 266 264 264 265 264 254 252 252 261 266 269 270 269 267 267 269 273 274 272 267 264 261 260 262 260 258 256 253 253 252 255 258 260
246 249 254 255 257 260 259 259 261 262 263 266 271 270 271 264 264 261 265 267 268 272 272 272 273 274 277 277 274 269 261 263 264 264 265 262 262 256 255 257 261 263 263
254 253 256 255 254 256 259 260 262 263 263 265 266 269 271 269 269 268 267 266 269 270 272 275 277 276 278 275 273 269 263 262 264 266 266 264 262 263 264 262 263 264 264
260 257 256 256 255 256 258 260 265 267 266 264 266 268 269 269 269 268 266 265 267 270 273 275 276 278 279 277 272 270 266 265 265 266 267 265 263 264 265 265 265 268 269
259 257 255 254 257 256 256 258 263 265 267 266 267 269 267 266 267 267 264 263 265 268 271 274 276 276 275 274 272 271 269 269 266 264 263 263 263 262 264 265 265 266 268
255 255 256 256 257 255 256 260 263 264 265 266 269 274 272 270 269 268 267 268 266 269 273 276 276 277 276 274 271 270 270 270 270 265 262 262 262 263 263 265 265 265 267
249 252 259 262 260 258 258 261 263 265 268 270 271 273 275 275 275 273 270 270 270 273 275 276 277 278 277 275 274 273 274 273 271 268 263 262 263 264 266 266 267 266 266
251 251 255 260 262 262 263 265 265 267 271 273 274 276 278 277 277 276 274 273 272 274 275 276 278 278 277 275 275 274 272 271 269 267 265 262 262 263 264 265 266 265 264
256 258 259 262 264 265 266 267 268 269 272 275 277 277 277 276 276 278 280 277 275 275 276 276 277 277 277 275 274 274 274 271 268 267 266 264 262 263 263 263 263 263 263
264 262 264 266 265 267 267 269 268 268 272 275 277 277 276 277 279 280 281 281 280 279 279 279 279 278 276 276 276 275 274 273 273 272 271 269 265 264 264 264 263 263 263
267 264 264 268 269 271 272 272 272 271 274 278 279 279 279 279 280 280 280 282 282 280 280 280 280 280 278 277 276 274 273 273 274 274 272 272 269 266 263 262 262 263 263
268 268 268 270 271 274 275 275 277 276 275 279 282 282 280 280 281 280 280 280 281 282 282 281 279 280 280 280 277 275 273 273 272 271 270 270 269 267 264 264 263 265 263
268 270 272 274 274 275 276 277 278 278 277 279 281 282 282 281 281 280 281 282 282 283 283 284 282 282 281 279 278 276 274 274 272 270 269 267 266 266 264 263 264 264 262
271 274 278 278 277 277 276 277 276 278 278 278 280 282 284 283 283 283 285 286 284 284 285 286 286 286 284 281 279 277 275 273 271 271 268 267 267 268 266 263 262 261 260
273 277 280 281 280 277 275 275 276 279 280 280 282 283 284 285 285 285 285 285 286 287 288 287 287 287 285 282 279 276 275 273 271 271 269 268 268 267 265 263 262 261 259
276 278 281 282 283 281 275 273 274 276 278 281 283 284 283 284 286 287 286 284 286 287 288 288 288 288 286 282 279 276 274 273 272 271 270 269 268 267 265 263 261 260 260
278 277 279 281 282 282 279 276 274 274 276 280 281 283 284 285 286 287 288 287 288 289 290 290 289 288 285 281 278 276 274 273 272 271 271 271 269 266 265 262 261 259 258
277 277 277 278 278 279 279 279 277 276 278 279 281 283 285 285 287 289 292 293 292 292 293 292 290 289 286 282 278 277 275 273 272 272 272 271 269 266 266 262 260 259 258
273 274 274 273 274 275 275 276 277 277 277 278 281 283 284 286 289 291 294 297 297 297 296 295 293 292 289 283 280 279 276 274 272 271 270 269 267 266 265 263 262 261 260
269 271 271 272 272 272 272 274 276 275 275 276 279 283 284 285 288 292 293 295 298 300 300 298 295 293 291 286 283 283 280 276 273 272 271 268 266 265 263 263 264 264 264
267 268 270 273 271 271 272 272 274 273 272 274 278 282 284 284 285 289 292 295 297 297 299 299 297 293 291 288 286 285 281 278 274 274 270 267 267 265 264 264 264 266 266
Height
5872 5872 5872 5872 5873 5874 5874 5874 5875 5875 5875 5876 5876 5876 5876 5876 5876 5876 5876 5876 5876 5876 5876 5876 5876 5876 5876 5876 5876 5876 5876 5877 5877 5877 5877 5877 5877 5878 5878 5878 5878 5878 5878
5871 5871 5872 5872 5873 5873 5873 5874 5874 5875 5875 5875 5875 5876 5876 5876 5876 5876 5875 5876 5876 5876 5876 5876 5876 5876 5876 5876 5876 5876 5876 5876 5876 5876 5877 5877 5877 5877 5877 5877 5878 5878 5877
5871 5871 5871 5871 5872 5873 5873 5873 5874 5874 5874 5874 5875 5875 5875 5875 5875 5875 5875 5875 5875 5875 5875 5875 5875 5875 5875 5875 5875 5875 5875 5875 5875 5876 5876 5876 5876 5876 5876 5876 5876 5876 5876
5870 5870 5871 5871 5871 5872 5872 5873 5873 5873 5873 5874 5874 5874 5874 5874 5874 5874 5874 5874 5874 5874 5874 5874 5874 5874 5874 5874 5874 5874 5874 5874 5874 5874 5875 5875 5875 5875 5875 5875 5875 5875 5875
5869 5869 5869 5870 5870 5871 5871 5872 5872 5872 5872 5872 5873 5873 5873 5873 5873 5873 5873 5873 5873 5873 5873 5873 5873 5873 5873 5873 5873 5873 5873 5873 5873 5873 5873 5874 5874 5874 5873 5873 5873 5873 5873
5868 5868 5868 5868 5869 5869 5870 5870 5871 5871 5871 5871 5871 5871 5871 5871 5871 5872 5872 5872 5872 5871 5872 5872 5872 5872 5872 5871 5871 5871 5871 5871 5871 5872 5872 5872 5872 5872 5872 5872 5872 5872 5872
5866 5866 5867 5867 5867 5868 5868 5869 5869 5869 5870 5870 5870 5870 5870 5870 5870 5870 5870 5871 5870 5870 5870 5871 5870 5870 5870 5869 5869 5869 5869 5869 5870 5870 5870 5870 5870 5870 5870 5870 5870 5870 5870
5865 5865 5865 5865 5866 5866 5867 5867 5867 5868 5868 5868 5868 5868 5868 5868 5868 5869 5869 5869 5869 5869 5869 5869 5869 5868 5868 5867 5867 5866 5867 5867 5868 5868 5868 5868 5868 5868 5868 5868 5868 5868 5867
5863 5863 5863 5864 5864 5865 5865 5865 5866 5866 5866 5866 5866 5866 5866 5866 5866 5866 5866 5867 5867 5867 5867 5867 5867 5866 5866 5865 5865 5865 5865 5865 5866 5866 5866 5866 5866 5866 5865 5865 5865 5865 5865
5862 5862 5862 5862 5863 5863 5863 5864 5864 5864 5864 5864 5864 5864 5864 5864 5864 5864 5864 5864 5864 5864 5864 5864 5864 5864 5864 5863 5863 5863 5863 5863 5863 5863 5863 5863 5863 5863 5863 5863 5862 5862 5862
5860 5860 5861 5861 5861 5861 5862 5862 5862 5862 5862 5862 5862 5862 5862 5862 5862 5862 5862 5862 5862 5862 5862 5862 5862 5861 5861 5861 5861 5861 5860 5860 5860 5860 5860 5860 5860 5860 5860 5860 5859 5859 5859
5859 5859 5859 5859 5859 5860 5860 5860 5860 5860 5860 5860 5860 5860 5860 5860 5859 5859 5859 5859 5859 5859 5859 5859 5859 5859 5859 5859 5858 5858 5858 5858 5857 5857 5857 5857 5857 5857 5857 5857 5856 5856 5856
5857 5858 5858 5858 5858 5858 5858 5858 5858 5858 5858 5858 5858 5858 5857 5857 5857 5857 5857 5857 5856 5856 5856 5856 5856 5856 5856 5856 5855 5855 5855 5855 5854 5854 5854 5854 5854 5854 5853 5853 5853 5853 5853
5856 5856 5856 5856 5856 5856 5856 5856 5856 5856 5856 5856 5855 5855 5855 5854 5854 5854 5854 5854 5853 5853 5853 5853 5852 5852 5852 5852 5852 5851 5851 5851 5851 5850 5850 5850 5850 5850 5850 5850 5850 5849 5849
5854 5854 5854 5854 5854 5854 5854 5854 5853 5853 5853 5853 5853 5852 5852 5851 5851 5851 5851 5850 5850 5850 5849 5849 5849 5848 5848 5848 5848 5848 5847 5847 5847 5846 5846 5846 5846 5846 5846 5846 5846 5845 5845
5852 5852 5852 5852 5852 5852 5851 5851 5851 5851 5850 5850 5849 5849 5848 5848 5848 5847 5847 5847 5846 5846 5845 5845 5845 5844 5844 5844 5844 5843 5843 5843 5842 5842 5842 5842 5841 5842 5841 5841 5841 5841 5841
5850 5850 5850 5850 5849 5849 5849 5848 5848 5847 5847 5847 5846 5846 5845 5845 5844 5844 5843 5843 5842 5842 5841 5841 5841 5840 5840 5840 5839 5839 5839 5838 5838 5838 5838 5837 5837 5837 5837 5837 5837 5837 5836
5848 5847 5847 5847 5847 5846 5846 5845 5845 5844 5844 5843 5843 5842 5842 5841 5841 5840 5840 5839 5839 5838 5837 5837 5836 5836 5836 5835 5835 5835 5834 5834 5834 5834 5833 5833 5833 5833 5833 5833 5833 5832 5832
5845 5845 5845 5844 5844 5843 5843 5842 5841 5841 5840 5840 5840 5839 5838 5838 5837 5837 5836 5836 5835 5834 5834 5833 5832 5831 5831 5830 5830 5830 5830 5829 5829 5829 5829 5829 5828 5828 5828 5828 5829 5829 5829
5843 5842 5842 5841 5841 5840 5839 5839 5838 5838 5837 5837 5836 5836 5835 5834 5834 5833 5833 5832 5831 5830 5830 5829 5828 5827 5827 5826 5825 5825 5825 5825 5824 5824 5824 5824 5824 5824 5824 5824 5824 5824 5825
5840 5839 5839 5838 5838 5837 5836 5836 5835 5835 5834 5833 5833 5832 5831 5831 5830 5830 5829 5828 5827 5826 5825 5825 5824 5823 5822 5821 5821 5820 5820 5820 5820 5819 5819 5819 5819 5819 5819 5819 5819 5820 5820
5837 5836 5836 5835 5835 5834 5833 5833 5832 5832 5831 5830 5830 5829 5828 5827 5827 5826 5825 5824 5823 5822 5821 5820 5819 5818 5817 5817 5817 5816 5816 5816 5815 5815 5815 5815 5814 5814 5814 5814 5814 5815 5816
5834 5833 5833 5832 5832 5831 5830 5830 5829 5828 5828 5827 5827 5826 5825 5824 5823 5822 5821 5820 5819 5818 5817 5816 5815 5814 5813 5812 5812 5812 5811 5811 5810 5810 5810 5810 5810 5810 5810 5809 5810 5810 5810
5831 5830 5830 5829 5828 5828 5827 5826 5826 5825 5825 5824 5823 5822 5822 5821 5820 5819 5818 5816 5815 5814 5813 5811 5810 5809 5808 5807 5807 5807 5806 5806 5806 5806 5805 5805 5804 5804 5805 5805 5805 5805 5805
5827 5827 5826 5825 5825 5824 5824 5823 5823 5822 5821 5821 5820 5819 5818 5817 5816 5815 5814 5813 5812 5810 5809 5807 5806 5805 5804 5803 5802 5802 5801 5801 5800 5801 5801 5800 5800 5800 5800 5800 5800 5800 5801
5823 5822 5822 5822 5821 5821 5820 5820 5819 5818 5818 5817 5816 5816 5815 5814 5813 5811 5810 5809 5808 5806 5805 5804 5802 5801 5800 5799 5798 5797 5797 5796 5796 5795 5795 5795 5795 5795 5795 5795 5795 5796 5796